{"data":{"norad_id":58900,"intl_designator":"2024-022B","name":"LEMUR-2-VALHALLA","alt_names":[],"object_type":"PAYLOAD","status":"ACTIVE","operator":null,"country":"US","launch_date":"2024-01-31","launch_site_code":"RLLB","launch_vehicle":null,"mission":null,"orbit_class":"UNKNOWN","rcs_meters":null,"size_class":null,"mass_kg":null,"dimensions":null,"purposes":["earth_obs"],"wikipedia_slug":null,"has_3d_model":false,"image_url":null,"decayed_at":null,"tle_current":{"epoch":"2026-05-25T03:03:36.252288Z","epoch_age_seconds":61211,"freshness":"FRESH","line1":"1 58900U 24022B   26145.12750292  .00015745  00000+0  41063-3 0  9996","line2":"2 58900  97.4137 354.8534 0009410 186.4011 173.7115 15.38877294128721","mean_motion":15.38877294,"eccentricity":0.000941,"inclination_deg":97.4137,"raan_deg":354.8534,"arg_perigee_deg":186.4011,"mean_anomaly_deg":173.7115,"bstar":0.00041063,"rev_number":12872,"period_min":93.574712266825,"perigee_km":443.00331516503,"apogee_km":455.85279259643,"semimajor_km":6827.5650538807,"source":"CELESTRAK","updated_at":"2026-05-25T13:38:13.534334Z"}}}